Weather History for Centerville, IA

Change the Weather History Date:

Friday, February 1, 2013

  Actual Average Record
Temperature  
Mean Temperature 11 °F -  
Max Temperature 24 °F 36 °F 59 °F (1987)
Min Temperature -2 °F 16 °F -17 °F (1979)
Degree Days  
Heating Degree Days 54    
Moisture  
Dew Point 0 °F    
Average Humidity 68    
Maximum Humidity 78    
Minimum Humidity 56    
Precipitation  
Precipitation 0.00 in - - ()
Sea Level Pressure  
Sea Level Pressure 30.29 in    
Wind  
Wind Speed 11 mph (SW)    
Max Wind Speed 21 mph    
Max Gust Speed 29 mph    
Visibility 10 miles    
Events      
Averages and records for this station are not official NWS values.
T = Trace of Precipitation, MM = Missing Value Source: NWS Daily Summary

Daily Weather History Graph

Daily Weather History Graph

Search for Another Location

Airport:

Trip Planner

Search our weather history database for the weather conditions in past years. The results will help you decide how hot, cold, wet, or windy it might be!

Date:

Astronomy

Feb. 01, 2013 Rise Set
Actual Time 7:21 AM CST 5:29 PM CST
Civil Twilight 6:52 AM CST 5:58 PM CST
Nautical Twilight 6:19 AM CST 6:31 PM CST
Astronomical Twilight 5:47 AM CST 7:03 PM CST
Moon 11:39 PM CST (2/1) 9:52 AM CST (2/1)
Length of Visible Light 11h 06m
Length of Day
10h 08m
Waning Gibbous, 70% of the Moon is Illuminated
Feb 1
Waning Gibbous
Feb 3
Last Quarter
Feb 10
New
Feb 17
First Quarter
Feb 25
Full

Hourly Weather History & Observations

Time (CST) Temp. Windchill Dew Point Humidity Pressure Visibility Wind Dir Wind Speed Gust Speed Precip Events Conditions
12:15 AM 1.4 °F -13.5 °F -5.8 °F 72% 30.38 in 10.0 mi West 9.2 mph - N/A   Clear
12:35 AM -0.4 °F -15.7 °F -5.8 °F 78% 30.39 in 10.0 mi West 9.2 mph - N/A   Clear
12:55 AM -0.4 °F - -5.8 °F 78% 30.39 in 10.0 mi North - - N/A   Clear
1:15 AM -0.4 °F - -5.8 °F 78% 30.39 in 10.0 mi North - - N/A   Clear
1:35 AM -0.4 °F - -5.8 °F 78% 30.40 in 10.0 mi North - - N/A   Clear
1:55 AM -0.4 °F - -7.6 °F 72% 30.40 in 10.0 mi North - - N/A   Clear
2:15 AM -0.4 °F - -7.6 °F 72% 30.41 in 10.0 mi North - - N/A   Clear
2:35 AM -0.4 °F - -7.6 °F 72% 30.40 in 10.0 mi North - - N/A   Clear
2:55 AM -0.4 °F - -7.6 °F 72% 30.39 in 10.0 mi North - - N/A   Clear
3:15 AM -0.4 °F - -7.6 °F 72% 30.39 in 10.0 mi North - - N/A   Clear
3:35 AM -0.4 °F - -7.6 °F 72% 30.38 in 10.0 mi North - - N/A   Clear
3:55 AM -0.4 °F - -7.6 °F 72% 30.39 in 10.0 mi North - - N/A   Clear
4:15 AM -0.4 °F - -7.6 °F 72% 30.39 in 10.0 mi North - - N/A   Clear
4:35 AM -0.4 °F - -7.6 °F 72% 30.39 in 10.0 mi North - - N/A   Clear
4:55 AM -0.4 °F - -7.6 °F 72% 30.39 in 10.0 mi North - - N/A   Clear
5:15 AM -2.2 °F - -7.6 °F 78% 30.40 in 10.0 mi North - - N/A   Clear
5:35 AM -2.2 °F - -7.6 °F 78% 30.37 in 10.0 mi North - - N/A   Clear
5:55 AM -2.2 °F - -7.6 °F 78% 30.39 in 10.0 mi North - - N/A   Clear
6:15 AM -2.2 °F - -9.4 °F 71% 30.40 in 10.0 mi North - - N/A   Clear
6:35 AM -2.2 °F - -9.4 °F 71% 30.39 in 10.0 mi North - - N/A   Clear
6:55 AM -2.2 °F - -9.4 °F 71% 30.39 in 10.0 mi North - - N/A   Clear
7:15 AM -2.2 °F - -9.4 °F 71% 30.40 in 10.0 mi North - - N/A   Clear
7:35 AM -2.2 °F - -9.4 °F 71% 30.39 in 10.0 mi North - - N/A   Clear
8:15 AM -0.4 °F - -9.4 °F 66% 30.40 in 10.0 mi North - - N/A   Clear
8:35 AM -0.4 °F - -9.4 °F 66% 30.41 in 10.0 mi North - - N/A   Clear
8:55 AM -0.4 °F - -9.4 °F 66% 30.40 in 10.0 mi North - - N/A   Clear
9:15 AM -0.4 °F -12.0 °F -9.4 °F 66% 30.40 in 10.0 mi West 5.8 mph - N/A   Clear
9:35 AM 1.4 °F -6.2 °F -9.4 °F 61% 30.40 in 10.0 mi West 3.5 mph - N/A   Clear
9:55 AM 3.2 °F -6.2 °F -9.4 °F 56% 30.42 in 10.0 mi West 4.6 mph - N/A   Scattered Clouds
10:15 AM 3.2 °F - -9.4 °F 56% 30.41 in 10.0 mi Calm Calm - N/A   Mostly Cloudy
10:35 AM 5.0 °F - -7.6 °F 56% 30.40 in 10.0 mi North - - N/A   Partly Cloudy
10:55 AM 5.0 °F - -7.6 °F 56% 30.40 in 10.0 mi North - - N/A   Scattered Clouds
11:15 AM 5.0 °F -9.1 °F -5.8 °F 61% 30.39 in 10.0 mi West 9.2 mph - N/A   Scattered Clouds
11:35 AM 6.8 °F -7.8 °F -2.2 °F 67% 30.39 in 10.0 mi West 10.4 mph - N/A   Partly Cloudy
11:55 AM 6.8 °F - -2.2 °F 67% 30.38 in 10.0 mi North - - N/A   Clear
12:15 PM 6.8 °F -6.9 °F -2.2 °F 67% 30.36 in 10.0 mi West 9.2 mph - N/A   Clear
12:35 PM 8.6 °F - -2.2 °F 62% 30.34 in 10.0 mi North - - N/A   Clear
12:55 PM 8.6 °F - -2.2 °F 62% 30.34 in 10.0 mi North - - N/A   Clear
1:15 PM 10.4 °F -2.4 °F -0.4 °F 62% 30.32 in 10.0 mi West 9.2 mph - N/A   Clear
1:35 PM 10.4 °F -1.5 °F -0.4 °F 62% 30.29 in 10.0 mi West 8.1 mph - N/A   Clear
1:55 PM 10.4 °F -3.3 °F -0.4 °F 62% 30.29 in 10.0 mi West 10.4 mph - N/A   Clear
2:15 PM 12.2 °F - -0.4 °F 57% 30.28 in 10.0 mi North - - N/A   Clear
2:35 PM 14.0 °F - 1.4 °F 57% 30.27 in 10.0 mi North - - N/A   Clear
2:55 PM 14.0 °F - 1.4 °F 57% 30.27 in 10.0 mi North - - N/A   Partly Cloudy
3:15 PM 14.0 °F - 3.2 °F 62% 30.25 in 10.0 mi North - - N/A   Partly Cloudy
3:35 PM 15.8 °F - 3.2 °F 58% 30.25 in 10.0 mi North - - N/A   Mostly Cloudy
3:55 PM 15.8 °F - 3.2 °F 58% 30.24 in 10.0 mi North - - N/A   Mostly Cloudy
4:15 PM 15.8 °F - 5.0 °F 62% 30.22 in 10.0 mi North - - N/A   Partly Cloudy
4:35 PM 15.8 °F - 5.0 °F 62% 30.21 in 10.0 mi North - - N/A   Scattered Clouds
4:55 PM 15.8 °F - 5.0 °F 62% 30.20 in 10.0 mi North - - N/A   Mostly Cloudy
5:15 PM 17.6 °F - 6.8 °F 63% 30.20 in 10.0 mi North - - N/A   Mostly Cloudy
5:35 PM 17.6 °F - 8.6 °F 68% 30.19 in 10.0 mi North - - N/A   Overcast
5:55 PM 17.6 °F - 8.6 °F 68% 30.17 in 10.0 mi North - - N/A   Overcast
6:15 PM 17.6 °F - 10.4 °F 73% 30.16 in 10.0 mi North - - N/A   Mostly Cloudy
6:35 PM 19.4 °F 6.0 °F 10.4 °F 68% 30.16 in 10.0 mi South 13.8 mph 21.9 mph N/A   Overcast
6:55 PM 19.4 °F 5.0 °F 10.4 °F 68% 30.14 in 10.0 mi South 16.1 mph - N/A   Mostly Cloudy
7:15 PM 19.4 °F 5.5 °F 12.2 °F 74% 30.14 in 10.0 mi South 15.0 mph - N/A   Partly Cloudy
7:35 PM 21.2 °F 7.3 °F 12.2 °F 68% 30.14 in 10.0 mi South 16.1 mph 25.3 mph N/A   Scattered Clouds
7:55 PM 21.2 °F 7.8 °F 14.0 °F 74% 30.13 in 10.0 mi SSW 15.0 mph 21.9 mph N/A   Mostly Cloudy
8:15 PM 21.2 °F 8.3 °F 14.0 °F 74% 30.13 in 10.0 mi South 13.8 mph - N/A   Mostly Cloudy
8:35 PM 23.0 °F 9.6 °F 14.0 °F 68% 30.12 in 10.0 mi South 16.1 mph - N/A   Mostly Cloudy
8:55 PM 23.0 °F 10.6 °F 14.0 °F 68% 30.13 in 10.0 mi SSW 13.8 mph 24.2 mph N/A   Mostly Cloudy
9:15 PM 23.0 °F 8.7 °F 14.0 °F 68% 30.13 in 10.0 mi SSW 18.4 mph 24.2 mph N/A   Mostly Cloudy
9:35 PM 23.0 °F 8.7 °F 15.8 °F 74% 30.13 in 10.0 mi SSW 18.4 mph 23.0 mph N/A   Partly Cloudy
9:55 PM 23.0 °F 8.0 °F 15.8 °F 74% 30.12 in 10.0 mi SSW 20.7 mph 28.8 mph N/A   Scattered Clouds
10:15 PM 24.8 °F 11.1 °F 14.0 °F 64% 30.10 in 10.0 mi SSW 18.4 mph 26.5 mph N/A   Mostly Cloudy
10:35 PM 24.8 °F 11.1 °F 14.0 °F 64% 30.11 in 10.0 mi SSW 18.4 mph 24.2 mph N/A   Scattered Clouds
10:55 PM 24.8 °F 11.5 °F 14.0 °F 64% 30.11 in 10.0 mi SSW 17.3 mph 20.7 mph N/A   Partly Cloudy
11:15 PM 24.8 °F 11.5 °F 15.8 °F 69% 30.10 in 10.0 mi SSW 17.3 mph 24.2 mph N/A   Partly Cloudy
11:35 PM 24.8 °F 12.9 °F 14.0 °F 64% 30.10 in 10.0 mi SW 13.8 mph 20.7 mph N/A   Mostly Cloudy
11:55 PM 24.8 °F 13.4 °F 15.8 °F 69% 30.09 in 10.0 mi SW 12.7 mph 19.6 mph N/A   Overcast